Location: Greenwich
(51.4790°N, 0.0090°E)
Time: 20:35:29
(UTC+01:00)

Altair - Pass Details

Date: 17 April 2024
Orbit: 1502 x 1682 km, 47.2° (Epoch: 24 May)

Event Time Altitude Azimuth Distance (km) Brightness Sun altitude
Rises 02:17:50 0° 284° (WNW) 4,816 10.0 -25.7°
Reaches altitude 10° 02:21:09 10° 279° (W) 3,803 9.4 -25.5°
Maximum altitude 02:30:01 44° 211° (SSW) 2,032 7.6 -24.9°
Drops below altitude 10° 02:38:35 10° 143° (SE) 3,675 9.2 -24.3°
Sets 02:41:45 0° 137° (SE) 4,641 9.8 -24.1°
